Location: Asheville, NC
(35.6000°N, 82.5500°W)
Time: 10:43:30

HO-68 - Pass Details

Date: 14 March 2018
Orbit: 1193 x 1204 km, 100.1° (Epoch: 20 March)

Event Time Altitude Azimuth Distance (km) Brightness Sun altitude
Rises 19:52:46 0° 172° (S) 4,075 ? -4.0°
Reaches altitude 10° 19:55:23 10° 175° (S) 3,115 ? -4.6°
Maximum altitude 20:02:27 66° 257° (WSW) 1,289 ? -6.0°
Drops below altitude 10° 20:09:35 10° 339° (NNW) 3,138 ? -7.5°
Sets 20:12:15 0° 343° (NNW) 4,107 ? -8.0°
